GFSSGP_700_spd_003.txt.gz
Wind_Speed
8 7 4 4 5 1 11 11 15 15 16 15 13 17 12 13 11 5 4 3 14 15 14 17 17 18 15 12 10 9 8 7 6 7 5 5 5 4 3 3 4 3 3 3 5 5 5 4 5
7 6 1 6 10 5 14 10 12 12 11 12 13 9 10 10 11 6 2 6 13 9 13 16 17 17 15 11 10 9 7 7 5 5 6 5 6 7 4 3 4 4 4 4 4 4 5 5 5
2 4 4 9 10 7 9 9 8 7 8 9 7 10 9 9 9 6 3 6 13 13 13 16 16 17 15 11 9 9 8 7 7 5 6 5 5 6 7 5 4 4 4 4 4 3 3 5 5
4 4 3 8 5 9 8 6 5 3 9 6 4 13 11 10 7 4 4 6 10 12 13 16 16 16 15 13 10 9 9 7 6 6 5 5 6 6 6 7 5 5 5 4 4 4 2 3 4
2 3 10 5 5 5 4 3 2 2 5 5 7 9 7 11 10 12 7 2 10 13 15 17 17 17 17 15 13 12 10 8 7 5 5 4 5 6 7 6 7 7 6 5 4 3 3 3 3
4 6 9 10 6 4 4 2 2 1 3 5 3 4 8 13 11 11 10 4 9 14 12 15 16 16 17 15 12 12 10 9 8 6 4 4 5 7 7 6 7 7 7 6 5 3 2 3 2
3 8 8 5 8 6 3 4 1 4 2 4 5 8 9 13 12 10 9 6 7 13 11 14 16 15 15 14 13 13 12 11 10 9 7 6 6 7 9 8 7 9 7 7 6 3 3 2 1
4 3 2 3 9 9 5 0 2 3 4 4 7 12 7 12 12 10 8 7 5 8 7 13 15 17 16 16 15 15 15 13 12 11 9 8 8 8 10 9 9 10 9 8 7 5 5 4 4
7 11 7 3 1 5 6 7 4 2 5 6 2 2 3 12 11 11 8 5 1 6 9 10 12 14 16 16 17 17 16 17 14 7 10 7 11 13 11 12 10 11 10 9 9 7 6 5 7
11 12 8 1 1 5 5 6 6 6 8 6 6 5 9 11 10 10 7 4 2 4 9 12 12 11 14 16 17 17 17 17 19 19 12 7 21 18 17 13 13 13 12 12 11 8 7 6 8
12 9 6 3 4 5 8 8 5 9 13 20 9 6 8 12 8 7 5 5 4 1 7 8 10 11 14 14 17 19 19 21 23 22 17 24 13 18 20 16 16 15 13 13 13 10 8 8 8
13 12 8 6 8 9 11 10 8 9 13 11 2 9 7 11 7 5 4 5 4 5 3 2 7 11 15 11 20 16 21 22 23 22 17 19 16 23 21 24 20 17 16 16 13 10 10 7 6
18 11 11 10 11 12 12 10 10 10 11 10 3 6 6 9 6 3 2 3 3 3 6 5 1 5 10 16 15 18 16 25 29 25 22 16 17 20 23 23 22 21 20 18 14 13 10 7 5
7 17 16 13 13 15 12 13 12 6 7 5 5 5 4 6 6 2 2 2 3 4 5 7 8 5 4 1 8 15 19 23 21 24 24 22 19 19 24 24 26 25 23 22 18 15 13 10 8
18 14 14 14 12 10 13 16 13 4 2 6 6 5 8 9 8 3 3 4 4 5 6 8 9 7 6 6 5 8 14 18 20 22 23 22 23 21 23 25 22 32 25 22 22 18 16 13 9
15 15 19 13 9 8 8 8 7 5 4 5 6 6 9 10 11 8 4 5 6 7 10 11 13 13 15 13 12 12 14 17 20 22 22 23 24 23 24 22 25 35 28 25 22 21 20 18 13
14 18 19 5 6 8 7 12 6 2 4 5 7 9 10 12 14 12 8 7 9 9 11 12 14 16 17 19 20 17 17 19 20 24 25 25 27 27 27 28 24 30 33 27 25 23 21 20 14
15 18 11 11 6 8 10 12 10 7 7 6 9 9 11 13 14 14 12 10 10 12 13 12 15 18 21 22 22 21 21 20 25 26 29 29 29 30 30 30 28 34 39 34 28 25 24 20 15
14 14 11 7 11 11 12 9 11 9 7 8 10 11 10 13 13 14 16 12 11 13 15 16 19 23 23 24 24 25 25 25 22 20 24 30 30 31 33 33 33 31 40 38 30 27 27 22 18
17 15 15 14 12 11 13 15 14 12 10 10 11 11 11 10 13 14 17 14 13 16 16 18 22 24 23 25 28 29 26 26 22 19 21 25 30 31 33 35 36 34 35 40 32 30 26 25 20
16 16 14 15 9 13 16 21 19 9 10 7 9 10 10 11 12 16 21 16 13 16 19 21 21 22 23 25 28 27 29 26 22 22 20 20 26 31 32 35 36 34 34 38 34 30 27 24 21
16 14 14 14 15 20 11 19 12 10 7 9 12 9 10 11 12 15 17 12 14 16 15 17 17 21 23 24 25 24 27 21 26 23 19 17 20 26 33 33 35 35 35 35 35 31 29 27 22
15 9 12 14 17 17 16 11 5 11 12 6 7 10 8 11 10 13 12 6 14 10 11 12 15 17 19 18 19 27 20 17 13 16 22 23 21 23 26 32 34 35 34 37 33 31 31 26 22
14 12 10 12 15 19 18 20 9 5 5 5 5 7 8 5 9 11 5 4 10 7 7 9 14 16 16 15 16 20 16 13 10 9 11 16 19 22 23 26 31 33 35 33 36 32 27 27 23
15 16 15 12 15 15 10 8 12 6 7 4 8 6 6 7 10 10 3 10 10 6 5 9 15 19 19 15 15 19 17 12 12 12 11 14 18 20 22 22 26 32 33 34 33 32 29 26 25
21 20 20 12 5 6 10 11 4 7 7 12 8 7 9 7 12 16 15 10 7 5 8 12 16 19 21 17 16 18 16 13 9 3 6 7 12 15 16 17 21 28 32 32 33 30 30 28 28
15 24 23 23 18 15 18 6 6 4 10 8 6 9 7 8 17 14 9 11 4 5 14 15 19 23 21 19 16 18 18 9 3 3 2 5 8 10 11 13 17 22 28 30 32 33 29 29 28
22 14 19 20 15 12 16 11 5 12 12 9 8 8 9 10 14 10 9 11 6 9 13 15 14 13 18 19 16 17 14 8 8 3 4 5 6 8 6 8 11 15 21 27 29 31 29 28 30
19 21 19 23 20 12 12 7 8 8 10 12 10 9 9 10 11 12 12 10 9 11 10 10 5 13 13 18 16 16 11 9 7 6 6 7 8 5 3 7 9 11 15 20 24 28 30 31 29
20 19 21 20 17 16 13 12 6 2 8 12 11 11 10 7 11 16 14 6 9 11 10 6 6 10 8 14 16 15 9 7 13 9 6 6 6 5 2 5 10 11 12 17 13 26 31 31 30

GFSSGP_700_spd_006.txt.gz
Wind_Speed
5 4 6 20 7 7 15 15 15 15 16 16 16 17 19 15 10 9 11 8 16 9 14 15 17 17 15 13 11 10 9 9 7 6 6 5 5 3 4 4 3 3 3 3 3 6 5 4 5
2 6 14 10 4 5 13 12 14 14 12 12 18 14 14 18 13 10 8 19 12 10 16 16 17 17 15 11 10 9 9 9 7 5 4 4 4 4 3 3 3 2 1 2 2 4 5 4 3
1 3 6 9 8 4 11 13 12 8 9 6 6 16 13 14 12 7 6 14 9 8 19 17 16 16 14 11 9 8 8 7 6 5 5 4 4 4 2 3 3 2 1 0 1 3 4 4 4
6 9 6 8 10 4 10 9 3 6 12 3 6 11 15 12 6 8 7 16 12 4 16 18 17 16 13 10 8 8 7 7 6 5 4 4 4 4 3 3 2 2 2 1 1 1 2 3 3
6 7 10 10 9 3 7 3 5 3 11 11 3 30 26 12 12 11 8 6 17 15 11 17 15 16 14 12 9 8 8 7 7 5 4 3 4 5 4 4 3 3 3 2 2 2 2 3 3
2 7 6 5 9 7 9 6 4 4 6 1 9 17 21 7 12 12 11 7 14 14 12 16 16 16 16 15 12 11 10 8 7 6 4 3 3 4 5 5 4 5 4 4 3 3 2 2 2
4 10 15 12 15 12 9 3 10 9 6 16 11 16 8 5 8 10 8 7 9 13 10 17 16 16 16 16 14 13 12 10 9 7 7 5 4 5 7 6 6 6 5 6 5 4 3 2 2
8 14 22 9 3 7 5 7 6 4 13 7 17 17 9 6 8 8 5 3 11 4 7 14 13 14 14 15 15 14 14 14 11 9 8 6 4 5 8 9 7 8 8 8 6 4 4 3 3
7 10 13 5 7 6 3 9 7 2 11 14 13 10 1 8 12 10 6 3 3 4 2 8 11 12 16 16 17 16 15 15 14 12 10 7 2 12 10 11 9 10 9 10 8 6 6 5 5
7 5 3 4 7 9 8 8 9 6 6 11 4 5 6 12 14 12 8 4 4 3 3 9 10 11 15 18 18 17 18 16 15 15 9 12 11 16 15 13 14 9 11 10 10 8 8 7 6
10 17 12 8 6 8 10 10 10 5 8 16 5 4 2 11 13 13 10 7 5 2 2 4 9 13 15 14 15 16 18 17 16 18 18 20 17 18 12 13 13 12 13 13 12 10 9 8 7
14 9 11 10 9 9 13 14 11 11 14 12 9 5 3 8 12 11 7 9 8 7 6 6 3 8 12 14 14 16 20 21 20 20 22 21 18 19 17 18 17 17 13 14 14 13 11 9 7
14 14 14 11 12 12 13 11 13 8 8 8 7 3 5 10 7 5 6 7 6 6 7 8 8 4 4 10 11 7 20 24 22 25 25 24 22 18 19 20 20 21 15 16 15 13 11 9 7
16 13 17 16 16 12 10 7 12 8 4 2 2 7 5 7 6 4 5 5 6 6 6 8 10 7 4 1 7 11 14 24 17 19 27 27 24 20 16 18 22 25 18 17 17 15 13 11 8
19 21 20 16 16 15 8 10 7 9 9 7 8 11 11 12 8 7 6 7 6 6 8 9 11 10 9 8 7 9 12 15 20 22 17 23 25 25 21 20 23 25 24 21 20 18 17 14 9
16 19 20 18 22 10 8 7 11 13 13 8 9 11 13 12 10 8 7 6 6 9 11 11 12 13 11 11 11 12 13 15 17 20 22 18 22 26 25 25 24 29 28 26 20 21 21 17 13
18 24 23 7 5 9 7 5 7 11 13 14 13 13 12 13 13 11 9 7 6 9 11 13 14 15 15 15 14 14 16 16 19 22 23 21 19 25 26 26 24 22 24 30 24 25 24 21 17
20 19 7 14 25 7 8 9 5 9 8 9 14 12 11 11 12 13 10 12 11 7 10 12 15 18 20 21 18 17 19 19 21 21 26 28 25 27 28 28 26 28 25 32 28 27 28 24 17
23 22 17 12 1 9 10 8 9 9 8 11 15 20 13 8 11 15 11 10 15 14 11 13 17 20 21 19 21 21 23 23 24 25 25 24 20 23 31 31 29 28 26 29 30 27 29 27 18
19 20 19 14 12 10 12 13 13 16 20 7 11 10 5 4 7 15 21 13 15 18 17 14 19 17 17 19 21 25 25 25 22 29 25 23 21 19 29 31 32 30 28 31 38 34 28 29 25
18 17 17 16 15 11 15 18 19 15 15 15 8 6 4 6 10 14 19 12 15 14 18 14 13 15 17 19 24 25 25 24 29 26 22 22 20 21 26 31 31 33 31 30 35 40 34 25 31
18 14 14 15 15 18 12 17 19 12 8 11 20 9 8 8 7 8 18 18 8 10 18 14 12 15 16 20 22 22 24 26 20 20 21 27 23 20 23 30 30 32 33 33 33 34 35 31 29
18 11 10 11 17 18 20 18 4 8 8 12 13 17 4 8 7 16 21 16 9 12 17 11 13 17 20 19 18 18 22 19 16 14 12 17 21 16 16 25 29 31 33 33 31 34 37 31 27
14 15 12 15 18 19 21 21 16 4 15 3 7 2 10 8 15 21 15 14 9 16 12 8 12 18 23 20 17 19 19 17 14 12 10 10 17 20 17 19 27 30 30 31 30 29 37 30 30
15 15 15 14 14 14 17 25 22 16 10 7 10 9 10 14 13 14 15 6 15 16 5 7 10 19 26 26 17 18 17 18 11 11 8 10 11 14 15 17 20 25 29 31 30 31 32 29 29
21 18 21 15 7 4 7 9 18 6 8 3 8 11 13 12 13 11 8 9 15 5 3 6 15 23 21 21 17 20 20 15 9 8 7 6 4 9 12 15 16 19 25 30 29 28 30 31 26
17 20 21 25 29 14 18 21 13 11 7 3 9 12 11 14 13 9 8 7 6 7 7 9 10 13 17 18 18 19 17 19 13 7 8 3 1 4 8 11 15 17 21 28 27 28 26 27 28
21 17 14 21 16 16 15 12 15 12 10 5 9 13 11 16 17 12 8 11 8 10 10 7 9 10 16 15 18 16 13 21 16 10 10 8 3 3 4 7 9 13 16 19 25 26 25 25 28
19 22 22 18 21 14 11 6 12 10 20 11 12 14 15 17 14 10 12 13 10 9 11 9 8 6 14 14 17 16 15 16 19 14 13 13 13 9 4 1 4 7 11 18 21 25 26 29 26
20 20 23 20 19 23 16 5 5 3 9 28 16 14 14 13 10 13 8 13 10 7 11 6 15 19 11 10 16 16 12 10 11 11 14 16 11 10 10 2 1 4 8 12 18 20 23 28 27

GFSSGP_700_spd_009.txt.gz
Wind_Speed
5 7 8 6 6 6 20 24 21 21 23 18 19 24 20 15 4 6 4 4 7 14 14 13 15 15 14 11 9 9 9 10 10 10 10 8 8 8 7 7 9 9 7 7 6 6 6 4 4
5 5 14 7 5 8 19 17 21 17 16 16 20 26 27 23 18 11 7 9 3 6 13 13 14 14 13 10 8 9 9 8 8 8 9 8 7 6 7 6 6 7 7 6 6 4 5 5 6
7 2 8 6 9 15 4 12 13 10 7 8 8 18 18 12 13 4 7 11 7 10 15 16 17 15 13 10 8 8 7 6 6 4 5 6 6 5 4 4 6 5 7 5 4 4 4 5 6
6 10 9 5 2 9 21 11 6 7 10 6 8 7 17 7 8 3 6 4 9 9 18 16 17 16 14 10 8 7 6 5 4 3 3 3 4 4 4 4 4 5 5 7 3 3 4 4 6
18 9 14 6 9 16 13 9 12 14 5 12 23 17 20 12 9 6 7 6 7 14 17 16 16 16 14 10 8 6 5 5 4 3 2 2 3 4 4 4 4 2 4 5 4 3 3 4 6
14 13 15 12 21 10 15 16 5 15 22 21 20 16 13 13 9 8 3 9 7 12 16 18 17 16 15 13 10 8 6 5 4 3 2 1 2 3 5 4 3 3 3 3 3 2 1 3 5
12 6 12 13 11 11 11 9 4 8 14 17 18 24 11 13 7 5 5 5 6 10 15 17 17 16 16 14 12 10 9 8 5 4 4 3 2 2 4 5 4 3 3 4 4 2 2 2 3
10 10 6 12 8 2 7 11 8 4 12 12 11 17 7 9 4 4 0 3 1 7 12 16 17 17 16 16 15 13 12 11 9 8 7 6 5 1 3 5 6 5 5 6 4 3 3 3 2
10 2 6 4 2 5 7 7 9 8 3 9 12 12 13 5 6 4 3 3 0 4 9 14 15 16 16 16 15 15 13 13 12 11 10 8 7 5 5 7 8 8 8 8 6 5 4 3 3
6 8 6 13 6 13 15 7 19 9 9 10 6 4 10 7 8 6 2 3 1 1 4 8 12 14 14 15 16 17 15 13 12 12 12 13 13 6 9 10 11 11 9 9 8 7 6 5 4
7 16 17 14 7 11 9 15 8 8 8 2 3 7 8 7 8 7 6 4 3 4 3 1 8 12 12 12 15 16 14 12 13 13 16 14 14 13 12 6 12 11 9 11 10 9 8 6 5
11 16 20 14 11 8 11 12 4 7 2 2 5 3 4 6 8 8 10 8 8 7 6 6 5 2 10 11 14 12 14 14 15 16 17 20 20 18 16 12 14 15 12 14 11 10 10 8 6
14 12 11 17 15 12 14 9 10 9 8 4 4 2 2 7 6 7 10 11 11 10 8 9 8 4 4 4 8 12 8 16 18 20 22 24 23 21 21 18 14 19 17 15 12 12 12 9 7
12 14 15 12 13 18 17 13 7 11 15 6 8 4 4 4 3 4 6 10 11 10 8 9 10 8 4 4 3 2 4 12 18 17 22 25 25 22 23 19 18 18 17 16 15 15 12 11 9
16 19 14 16 16 17 21 22 11 10 12 13 13 8 8 9 5 4 3 5 7 8 8 10 9 9 9 8 4 3 6 7 6 10 12 14 22 25 27 23 21 21 20 22 17 16 15 13 11
12 14 16 17 17 21 10 14 7 8 11 19 25 7 16 14 8 7 4 2 3 3 5 7 7 9 10 9 11 11 11 12 12 11 13 15 16 20 26 28 26 21 19 19 22 18 19 15 14
11 16 2 18 19 21 10 10 14 16 28 25 10 13 24 17 14 4 4 4 1 1 3 7 9 9 10 9 9 9 11 13 16 17 19 15 13 18 24 28 28 25 20 24 26 22 21 19 15
16 3 8 10 5 11 8 13 17 15 4 16 25 23 12 16 17 12 5 6 5 3 3 8 12 12 10 10 9 11 12 15 17 20 22 20 17 18 24 27 29 28 24 26 27 26 24 23 19
11 14 8 9 8 13 4 11 6 14 11 18 18 17 18 27 19 21 12 5 8 6 5 6 11 12 12 13 12 14 17 18 19 21 23 19 21 22 18 28 30 30 26 25 22 29 27 25 24
22 20 16 17 14 19 7 12 17 19 12 21 14 12 15 14 14 26 21 14 3 7 8 6 7 9 12 14 15 18 21 21 23 22 23 26 31 28 21 22 30 31 28 27 26 28 30 26 24
18 19 17 16 15 12 11 19 23 26 24 9 5 11 18 17 20 23 22 24 10 2 9 12 7 12 15 17 19 20 23 21 20 23 21 23 23 24 19 20 25 31 31 28 26 26 31 27 25
20 15 17 19 13 13 19 15 22 13 14 9 12 20 10 19 27 9 14 13 9 4 11 12 10 14 17 22 23 21 21 20 22 18 15 15 21 22 19 19 22 29 31 29 27 23 33 31 25
19 17 17 13 11 15 18 18 4 8 7 6 12 11 6 7 6 14 15 4 2 9 11 7 9 11 19 25 27 21 20 19 20 13 11 10 10 23 21 16 20 27 29 28 27 26 26 33 33
16 15 17 15 13 15 24 19 12 11 7 6 6 3 15 11 13 16 12 12 12 8 10 5 7 15 24 23 26 23 22 18 13 9 11 8 5 12 16 15 14 23 27 25 28 29 27 29 33
17 15 10 6 4 10 9 11 11 11 10 8 16 17 12 13 13 8 7 10 8 12 2 1 7 16 18 21 22 21 21 19 6 7 7 5 5 7 13 14 13 15 23 24 26 27 27 27 33
17 19 13 5 3 7 16 8 6 20 10 19 19 14 3 2 2 6 7 8 4 3 4 5 13 14 17 18 21 19 22 15 11 11 9 8 4 3 8 8 10 12 17 25 24 23 25 27 30
20 18 23 21 25 16 12 10 6 11 7 17 14 11 6 4 3 7 9 10 5 5 6 8 11 10 13 17 18 20 22 17 16 17 15 11 8 4 1 3 6 10 13 18 21 23 25 26 28
14 18 11 15 3 6 13 5 12 8 16 8 11 14 14 6 2 7 10 2 7 5 8 11 8 9 9 15 16 19 17 21 18 16 16 20 13 9 4 3 6 8 12 16 21 22 23 23 23
19 17 22 20 17 7 1 4 6 14 5 10 11 15 16 12 5 7 5 3 7 10 8 8 8 7 6 12 15 17 17 14 17 20 19 11 12 12 11 5 1 2 8 14 16 21 20 21 22
21 20 22 21 16 16 6 3 11 19 22 15 24 23 21 15 5 7 6 5 8 6 2 2 13 10 2 8 12 15 15 14 10 7 11 12 13 12 12 6 6 3 4 10 15 16 17 20 22

GFSSGP_700_spd_015.txt.gz
Wind_Speed
12 4 6 9 16 18 22 12 14 13 13 13 10 4 4 6 6 4 13 19 16 15 16 16 15 14 13 12 9 7 8 8 9 8 7 7 7 7 7 7 7 8 8 8 9 9 7 5 4
8 12 17 23 20 22 18 9 10 11 12 11 7 1 9 9 5 7 14 19 13 14 17 15 16 13 12 10 8 7 7 7 7 7 7 7 7 6 6 6 7 7 7 8 7 7 6 5 4
11 15 19 16 22 18 16 9 6 5 9 7 11 6 6 8 9 7 12 17 19 16 15 12 16 15 12 9 8 7 6 6 6 6 7 8 8 8 7 6 5 7 6 7 6 5 5 5 7
7 4 13 10 7 4 1 5 10 8 1 6 6 4 8 11 9 5 10 16 16 16 14 14 16 14 12 9 8 7 6 5 6 6 6 7 8 8 9 8 7 6 7 6 6 5 5 6 7
10 9 12 16 8 3 6 7 6 4 2 0 2 8 9 10 9 3 6 9 12 11 13 15 16 15 12 9 7 7 7 6 6 5 5 6 8 8 8 9 8 8 7 7 6 6 5 6 9
5 3 13 12 5 3 7 3 8 9 9 7 4 12 9 8 7 4 6 6 7 9 14 15 17 15 12 9 8 8 8 6 5 3 3 4 5 7 7 8 8 7 8 7 6 5 4 4 9
4 19 12 11 12 11 6 5 7 8 8 4 5 11 9 8 7 4 6 6 6 10 17 16 17 16 15 12 10 9 8 7 6 5 4 4 4 5 7 8 8 9 8 7 6 5 4 3 6
10 13 8 11 9 6 6 5 7 3 3 4 6 4 7 11 10 6 4 6 9 10 14 14 15 16 16 15 14 11 10 9 9 8 8 7 5 3 3 5 6 6 8 7 7 6 6 5 4
9 11 9 9 7 10 8 2 8 6 3 4 2 2 7 11 12 8 4 4 7 11 13 15 17 17 17 17 16 15 14 12 11 12 11 9 7 6 5 2 6 7 7 7 7 7 7 7 5
10 4 9 11 15 17 10 8 10 12 9 4 4 3 3 8 12 10 6 4 2 5 7 13 15 19 19 18 18 18 16 15 15 15 14 13 11 11 6 1 3 9 9 9 10 8 6 8 7
6 2 8 10 20 23 23 18 17 14 8 7 6 5 4 8 11 10 5 3 2 3 4 8 12 16 18 19 18 19 17 17 18 18 17 16 14 16 14 5 4 6 10 10 10 11 9 10 8
8 4 10 14 12 15 11 15 14 10 4 5 1 3 3 7 9 8 5 3 3 2 4 6 9 13 16 19 18 19 19 19 18 18 18 17 16 18 20 15 9 8 11 10 11 12 11 10 11
10 10 9 10 11 12 9 4 6 9 8 8 7 11 7 3 5 5 5 5 4 4 3 1 2 5 10 14 17 17 17 16 18 20 18 17 17 19 18 19 15 14 12 14 13 13 12 12 11
15 13 9 8 11 12 9 8 5 11 11 12 9 12 4 9 12 7 8 8 6 5 5 3 5 6 7 8 10 13 13 16 15 18 20 19 19 21 23 23 21 18 17 15 17 17 14 15 13
15 15 14 12 12 15 15 8 7 10 14 13 10 9 2 5 34 13 10 8 5 3 4 3 3 5 6 7 7 7 9 9 10 12 16 19 20 21 24 27 22 20 19 17 17 18 15 15 14
11 12 11 2 11 16 18 6 8 10 15 13 13 14 7 10 18 15 12 11 10 6 4 5 4 3 5 5 6 7 8 10 11 13 13 15 17 21 20 20 22 24 24 19 17 19 18 17 16
13 11 11 11 18 16 2 6 8 3 13 16 13 15 12 10 14 25 18 16 15 15 11 6 5 4 3 6 8 9 9 11 13 15 16 18 19 18 19 20 22 22 24 23 19 21 20 19 19
10 7 8 11 15 20 17 5 5 7 15 19 15 15 13 11 15 22 25 17 19 21 18 13 9 9 7 8 10 11 13 15 16 19 20 21 21 21 20 21 21 20 23 26 24 20 21 22 20
9 9 13 5 15 14 14 12 11 12 17 21 25 14 17 13 16 26 23 26 39 30 21 14 12 14 11 11 12 14 17 19 18 23 24 24 24 24 24 22 22 23 22 23 25 22 22 25 20
8 11 9 13 14 15 16 13 12 8 11 17 20 11 17 11 12 20 18 15 15 24 21 16 10 10 10 10 13 19 17 20 22 26 26 27 26 25 26 26 24 23 22 24 27 27 24 25 25
8 14 12 15 16 18 15 9 7 5 7 15 18 19 17 14 8 11 13 15 5 24 15 21 13 8 7 9 13 16 18 18 20 24 24 26 24 26 28 28 28 27 25 25 27 28 26 24 26
11 5 11 15 15 11 11 4 6 12 12 10 17 21 12 5 5 10 4 9 8 13 28 15 7 6 8 11 15 18 22 20 21 19 19 20 24 23 22 26 29 30 30 26 28 29 28 26 24
15 12 14 12 12 10 10 6 6 13 9 6 8 15 8 4 2 3 2 5 5 5 5 4 5 4 8 12 15 19 22 21 16 15 12 14 16 17 20 22 26 26 27 25 25 31 30 28 28
12 18 17 15 8 5 9 6 9 9 7 8 9 8 8 3 2 2 3 2 6 5 4 6 4 4 7 11 14 18 20 13 11 9 9 12 14 14 15 16 19 19 20 22 22 28 31 27 26
13 12 5 3 2 6 7 6 5 7 7 6 10 5 7 5 3 4 3 3 2 3 5 7 2 4 7 11 12 16 12 12 12 12 9 10 9 10 8 13 18 17 17 18 22 26 30 28 26
13 14 10 6 4 4 7 4 6 8 13 8 7 12 9 7 3 4 5 3 1 1 5 3 2 4 6 10 11 12 11 13 15 13 10 9 6 3 3 10 14 14 16 16 21 26 28 28 26
6 15 15 12 1 1 6 9 4 8 16 10 14 18 5 12 1 4 7 4 5 1 2 6 5 5 5 8 8 10 10 14 11 13 13 9 7 3 1 5 9 11 13 13 18 21 23 25 26
11 17 8 8 4 3 4 4 9 13 10 11 17 18 10 8 23 13 5 6 2 2 3 4 6 4 3 5 7 10 11 12 13 13 13 13 11 7 2 2 5 7 9 10 15 19 22 23 24
11 12 14 10 5 7 3 6 6 8 14 16 17 21 15 10 23 18 8 9 7 5 6 5 3 6 6 4 7 9 11 13 14 13 13 12 13 12 6 3 2 6 8 9 11 16 20 20 22
17 16 14 17 7 6 5 11 11 13 15 19 17 12 10 2 11 17 13 3 8 6 5 5 1 2 8 6 7 7 9 11 13 14 13 13 13 14 7 6 4 1 1 8 10 11 14 17 18

GFSSGP_700_spd_021.txt.gz
Wind_Speed
10 7 7 11 14 17 13 13 17 12 10 8 4 8 4 4 2 1 3 17 14 10 11 12 11 11 11 9 7 6 5 4 3 3 4 5 7 7 7 6 7 7 7 7 6 6 4 2 3
9 8 4 10 16 16 12 14 12 15 15 8 6 8 6 5 2 2 11 14 14 11 11 12 12 12 10 8 7 6 5 3 3 3 3 4 6 6 6 6 5 5 6 7 6 6 4 2 2
8 6 4 9 15 14 9 9 11 12 10 10 8 7 6 6 7 8 8 9 14 15 14 13 12 13 11 8 7 7 5 3 3 2 3 3 3 6 6 5 5 3 4 7 6 5 3 2 3
8 5 6 9 13 13 8 8 7 11 10 9 9 5 8 7 9 5 5 10 14 16 14 13 12 13 11 9 7 6 6 4 2 1 1 2 1 2 3 3 4 3 3 5 6 5 3 4 4
9 5 5 9 14 13 10 8 5 4 7 5 8 6 6 7 7 8 7 11 13 15 12 12 12 11 9 8 6 5 4 4 3 2 2 1 2 2 2 3 3 3 3 5 6 5 4 4 5
5 3 8 13 17 12 9 9 7 4 6 4 7 7 7 6 7 8 11 13 14 12 10 10 12 11 10 8 6 4 3 3 2 2 1 1 1 2 3 3 4 4 3 3 3 5 3 4 6
1 12 12 13 15 13 8 4 7 7 7 7 6 7 7 6 5 7 10 13 14 14 12 11 13 12 10 8 6 4 2 1 1 1 1 2 1 2 3 4 5 4 5 4 4 5 4 3 7
15 16 11 13 14 12 12 8 6 8 9 8 5 4 6 5 4 7 10 10 14 15 15 14 13 12 11 9 7 5 4 4 4 3 2 2 2 3 4 6 7 7 6 6 5 4 4 3 5
19 16 13 11 10 8 9 7 7 7 8 7 7 2 3 4 4 7 7 6 10 13 16 15 13 13 12 11 10 9 7 6 7 5 5 4 4 5 5 6 7 8 8 8 7 6 6 5 5
14 10 9 7 9 10 4 4 7 8 7 5 6 4 1 1 2 4 7 7 7 10 12 13 13 13 13 13 13 12 11 9 10 8 8 8 8 7 8 6 5 7 9 9 8 9 8 7 7
10 7 5 5 8 9 7 6 6 5 2 3 3 4 4 1 8 5 9 10 10 10 9 11 12 13 14 14 15 15 15 13 14 13 12 12 11 10 10 10 6 3 6 9 10 12 10 9 8
7 4 2 4 8 8 7 6 7 7 4 5 4 5 5 1 6 4 6 7 6 8 8 8 9 11 13 15 16 16 15 15 15 15 16 16 17 16 14 15 15 9 7 8 11 13 13 11 10
9 7 4 4 6 8 10 7 8 8 8 7 7 6 2 4 7 5 2 3 5 7 6 6 5 6 8 11 13 14 15 15 17 17 18 20 24 22 15 17 19 19 15 11 12 14 14 14 13
12 9 8 7 8 12 15 13 11 10 9 7 7 6 6 2 5 4 2 3 5 4 5 3 3 3 3 6 9 12 14 15 17 16 17 17 18 16 12 19 21 22 21 19 15 16 17 16 16
17 14 9 11 12 7 12 14 12 10 9 8 7 7 9 0 2 1 4 4 5 4 3 1 1 2 0 1 4 7 9 12 14 14 16 18 19 21 19 21 23 23 23 23 22 20 19 19 17
15 14 10 4 5 10 11 7 8 9 9 6 5 9 10 8 6 3 6 6 5 4 3 1 1 2 2 2 4 6 7 8 10 13 15 16 16 18 22 24 23 23 24 27 27 25 22 22 20
14 10 10 5 4 11 9 7 5 8 4 7 4 9 12 14 11 11 6 8 8 7 4 2 4 6 5 4 4 6 7 9 13 15 17 19 19 21 21 22 24 25 27 26 24 27 25 23 22
11 14 13 6 8 9 7 8 4 4 5 7 4 8 13 16 11 15 15 13 14 10 4 6 13 14 12 9 8 9 11 12 15 18 20 22 24 25 25 25 26 25 24 24 24 25 28 26 25
9 10 7 4 4 9 8 9 7 4 5 6 6 7 13 17 12 15 18 15 20 18 12 12 22 27 20 14 13 11 12 16 19 22 24 26 26 27 27 28 28 29 28 25 24 25 26 28 27
12 9 5 7 7 8 7 6 5 3 5 6 8 11 15 15 13 14 16 9 16 17 21 24 22 27 21 16 12 11 16 19 23 25 29 31 31 29 29 29 31 31 30 29 26 25 26 29 28
8 8 4 6 9 7 3 1 5 6 10 11 12 12 13 16 14 15 13 9 15 16 18 21 8 15 15 13 11 13 15 20 23 24 25 27 27 27 26 27 30 31 30 31 29 27 26 28 29
6 4 2 6 5 3 3 4 6 6 6 5 8 8 8 10 12 14 12 10 14 14 19 16 15 15 13 10 10 13 16 19 20 20 19 19 17 18 20 22 24 27 29 29 32 33 28 28 31
6 5 3 6 6 6 6 4 6 6 5 7 4 5 8 9 10 10 10 6 10 13 10 10 15 16 13 8 9 12 14 17 18 16 16 15 14 13 13 15 18 23 27 28 27 35 26 24 29
11 6 6 6 5 6 9 6 7 10 9 7 5 5 9 9 10 10 7 5 6 13 14 10 14 14 10 6 7 9 12 15 15 17 16 16 16 15 13 11 13 16 20 25 23 20 26 25 25
13 7 3 3 4 5 7 4 5 7 9 9 4 7 10 8 9 7 6 5 5 11 13 14 13 11 6 5 5 8 11 14 16 18 19 18 18 14 12 10 9 13 16 21 22 20 24 27 24
20 15 7 3 3 1 6 5 7 9 10 8 6 8 9 9 6 9 8 4 4 9 10 11 11 7 6 3 5 7 11 13 16 18 19 18 17 14 11 9 7 6 3 5 7 10 15 21 22
13 15 12 8 5 4 5 10 13 8 5 2 3 8 7 9 6 10 8 6 5 5 7 10 8 6 5 3 4 7 11 13 15 17 19 18 18 15 10 8 5 4 6 7 8 11 14 19 22
8 10 4 7 4 5 3 7 6 6 2 1 8 5 9 8 6 8 11 8 8 6 6 6 7 5 5 5 4 8 11 13 14 15 18 19 18 15 13 9 6 3 4 6 7 9 13 16 20
12 12 7 5 5 4 3 4 4 8 7 10 11 3 11 16 6 9 12 11 10 3 3 2 5 6 6 7 5 9 11 12 12 14 16 17 16 15 12 10 6 3 2 4 5 7 8 10 12
7 9 10 6 5 7 5 11 11 13 10 6 9 8 12 19 10 12 17 12 7 6 5 5 5 4 9 11 10 10 10 11 12 13 15 15 14 14 12 9 8 6 3 2 2 5 6 10 11

GFSSGP_700_spd_027.txt.gz
Wind_Speed
12 13 15 14 13 17 22 19 14 14 14 13 11 10 11 7 9 7 17 13 16 14 14 15 16 15 13 12 12 11 10 10 9 8 7 7 6 6 7 4 3 3 4 1 2 2 2 2 3
13 11 15 9 10 19 21 16 15 13 10 12 10 8 9 9 4 9 15 14 14 13 14 14 15 15 13 13 12 11 10 10 9 8 7 6 6 6 5 4 2 3 2 2 2 2 1 1 1
10 11 7 2 17 19 17 13 14 12 11 10 10 11 8 8 9 12 17 17 14 13 14 15 15 15 15 14 13 11 10 9 8 8 7 6 5 4 4 3 2 2 1 2 2 3 2 0 2
16 6 5 17 15 14 13 12 13 12 11 10 10 10 11 10 8 10 16 16 13 14 14 14 14 14 14 13 12 11 10 9 8 7 7 6 5 4 2 1 1 1 0 2 3 3 2 2 3
6 4 6 13 15 12 11 10 12 12 10 9 9 10 9 6 6 10 12 12 14 15 16 14 13 12 12 12 11 10 9 9 9 8 7 5 3 2 1 1 1 1 1 2 3 3 2 2 4
4 4 13 12 12 11 9 9 11 9 8 10 10 8 6 6 6 9 12 14 14 15 16 15 14 12 11 11 10 10 9 9 8 7 6 5 4 2 1 1 2 2 0 2 3 3 2 2 4
6 5 11 12 11 7 7 7 8 9 9 7 8 6 6 7 3 8 13 15 15 15 15 15 15 12 11 10 10 9 8 7 7 6 5 4 3 3 0 3 3 2 2 3 2 2 2 2 5
3 9 6 7 12 10 6 7 5 6 3 5 6 5 3 4 6 4 11 16 16 14 12 15 14 13 11 9 9 7 6 6 5 5 4 3 1 1 0 3 5 4 4 3 3 3 2 2 5
5 7 8 6 7 9 6 3 4 4 3 4 5 4 6 9 9 4 4 11 14 14 12 14 15 14 13 11 9 8 6 5 5 4 4 3 2 3 3 3 5 6 5 5 4 3 3 5 6
3 6 8 5 5 4 5 4 4 3 2 2 2 2 5 7 10 1 4 5 8 10 12 11 13 14 12 11 11 10 8 8 7 7 6 5 2 6 7 5 6 6 7 7 6 5 4 5 6
1 10 7 4 2 4 4 3 3 3 2 3 4 2 3 3 9 2 7 8 8 8 8 12 10 13 12 12 12 12 11 11 10 9 9 9 8 8 10 11 10 8 6 6 5 7 6 6 7
2 3 5 0 3 4 4 2 3 2 4 1 4 4 2 2 6 2 8 9 10 10 10 12 11 10 11 13 13 14 12 12 13 12 11 11 12 11 11 13 12 13 13 10 8 7 7 6 8
3 4 3 4 5 6 7 6 6 3 2 5 6 4 3 5 1 2 5 8 8 9 9 8 9 10 10 13 15 14 14 14 14 14 13 15 15 16 17 16 18 21 22 16 12 9 11 9 10
6 6 6 6 7 8 7 6 5 7 4 1 4 5 12 12 7 7 4 4 9 7 6 6 7 6 7 10 13 12 13 13 14 15 15 14 17 16 15 19 21 25 26 23 22 18 14 12 11
7 7 7 7 5 5 11 7 3 6 1 3 6 5 14 12 10 3 4 5 6 8 7 6 6 6 7 7 8 10 11 11 13 13 14 13 14 14 15 14 14 13 24 26 31 5 14 14 13
10 10 12 11 5 4 7 7 3 4 3 6 3 6 15 12 10 5 4 8 10 10 9 8 7 6 5 5 4 4 4 5 6 7 9 10 13 14 14 13 11 14 22 22 22 22 19 21 19
13 16 13 3 4 5 4 5 1 3 5 8 6 7 12 14 15 9 3 6 11 13 12 11 11 9 7 5 4 1 3 4 9 10 12 15 16 17 18 18 15 16 18 21 21 22 19 18 23
6 11 7 8 4 5 7 4 4 3 5 7 6 8 9 13 17 16 10 8 10 15 17 16 17 16 15 9 4 3 6 9 10 12 14 16 21 23 22 23 22 21 21 20 20 20 22 22 23
7 7 8 7 9 7 7 8 8 6 5 8 9 10 10 10 16 17 14 12 15 16 20 16 23 9 15 12 1 6 8 11 13 15 18 21 24 23 23 25 26 25 25 25 22 28 25 22 19
8 9 11 8 9 9 10 11 9 8 8 9 10 13 9 10 16 14 14 15 17 17 18 20 18 20 27 5 5 7 7 11 13 16 17 19 19 20 21 21 23 26 27 27 27 27 28 22 22
10 12 9 10 6 12 12 17 11 9 6 9 9 12 12 13 15 13 12 16 18 16 11 15 17 18 19 3 3 6 9 10 13 16 20 22 21 18 17 17 16 20 23 26 28 28 28 24 21
12 10 10 9 11 14 4 16 9 7 6 7 6 9 11 11 15 12 9 14 17 13 8 9 13 12 6 4 3 5 10 10 11 13 17 19 19 21 20 18 18 17 18 23 26 28 29 26 23
6 6 7 9 12 13 11 9 9 7 4 5 4 7 9 13 13 10 8 11 13 12 8 8 9 7 9 6 4 7 9 10 13 16 18 20 21 21 16 14 15 15 16 17 20 24 26 25 29
8 7 9 10 13 17 15 9 10 4 3 3 4 4 8 11 12 9 9 10 11 12 9 7 6 4 8 7 5 8 8 11 15 17 18 20 21 22 16 14 11 12 12 13 14 18 21 23 27
11 10 14 13 14 11 7 6 12 9 5 5 5 6 7 12 10 8 8 11 11 11 11 7 7 3 3 2 6 6 7 12 15 18 18 19 19 20 17 12 11 11 10 8 12 14 16 21 20
14 15 18 13 9 4 6 4 1 2 7 5 3 4 6 8 8 9 8 9 11 10 9 8 7 5 5 5 7 6 7 12 16 18 18 19 18 18 17 14 12 8 5 3 3 5 7 12 15
16 17 17 21 22 18 20 13 5 5 4 4 3 0 6 9 10 8 10 8 10 9 7 8 7 8 8 8 6 5 7 12 16 18 19 18 17 17 17 15 12 9 5 4 3 3 3 2 7
21 11 14 16 14 15 19 6 8 7 2 9 7 3 7 6 9 10 10 9 11 9 7 8 6 8 9 9 7 6 7 11 14 18 19 17 16 15 15 14 14 11 9 5 5 4 4 4 5
10 18 18 20 16 12 8 6 16 3 2 2 3 6 8 7 11 11 7 9 12 11 8 6 6 9 11 12 10 6 7 10 14 17 19 17 14 13 13 13 13 11 8 8 7 6 4 6 7
9 14 15 17 17 18 18 13 9 8 3 3 6 5 6 7 10 12 9 9 14 12 9 5 6 9 11 13 10 5 6 9 12 17 20 18 12 10 10 12 14 12 9 10 9 5 5 5 4

GFSSGP_700_spd_033.txt.gz
Wind_Speed
9 13 10 19 11 23 23 23 21 17 16 21 14 11 8 6 7 9 11 8 11 14 16 16 14 12 12 12 12 12 12 12 12 12 12 11 11 10 9 9 8 8 6 6 7 8 7 7 8
7 9 11 10 16 27 20 16 22 16 13 7 9 15 14 15 6 13 12 9 13 14 15 14 13 13 13 12 12 12 11 12 12 11 11 10 10 9 9 8 7 6 5 6 5 7 6 6 7
3 5 8 7 24 21 21 19 17 17 12 11 18 21 15 12 4 6 10 11 14 15 14 14 13 13 12 12 11 11 11 11 11 11 10 10 9 8 8 7 6 6 4 2 3 4 4 4 6
3 6 6 12 27 17 20 21 21 13 7 13 22 21 13 3 2 2 9 10 13 15 15 13 12 12 12 12 12 11 10 10 9 9 8 8 7 7 6 5 5 5 4 2 2 2 2 2 4
9 12 10 23 20 20 15 14 11 15 7 10 14 18 12 3 3 3 11 7 13 16 15 13 12 12 13 12 12 12 10 9 9 8 7 6 5 5 5 4 4 4 4 3 3 2 4 4 3
23 16 14 19 21 19 10 14 13 15 7 7 13 18 15 9 5 11 8 6 11 11 14 12 10 11 12 11 11 11 12 11 9 8 7 6 4 3 3 4 4 4 3 3 1 1 5 6 3
17 11 19 11 12 10 16 16 18 14 8 5 13 15 12 5 3 8 7 6 15 7 11 11 11 10 10 10 9 9 10 9 7 7 6 4 3 1 2 2 2 3 3 2 3 3 6 7 3
9 10 19 15 15 15 18 16 11 12 14 8 9 11 7 10 4 3 9 10 7 9 11 11 11 10 10 9 9 8 8 8 6 5 4 2 2 1 2 1 0 2 2 1 1 1 4 6 3
7 20 17 11 10 17 7 14 7 8 10 2 3 11 10 15 9 3 5 6 7 13 15 14 13 12 10 10 10 9 8 8 7 6 5 4 3 1 1 1 0 1 1 2 3 2 3 4 2
4 10 10 8 14 9 9 5 8 5 3 3 2 7 8 13 15 4 4 2 2 10 14 16 15 15 13 12 10 10 8 7 7 6 8 6 6 5 5 3 2 2 2 3 4 4 4 4 6
7 8 8 7 9 11 9 3 4 3 7 3 8 7 6 9 13 8 6 3 3 2 8 14 15 15 15 13 12 11 10 9 9 8 9 8 9 7 7 4 5 5 4 3 4 6 7 7 6
2 3 9 6 4 8 5 6 6 6 4 6 10 6 3 5 9 9 11 8 5 2 4 5 11 13 15 15 14 13 12 11 11 12 12 12 9 9 11 8 8 7 7 7 8 7 6 9 9
6 1 4 2 2 6 7 4 4 3 2 3 8 5 4 4 4 7 12 10 7 4 6 5 3 8 12 12 13 11 11 12 13 12 12 13 11 11 12 13 12 13 16 15 15 10 10 7 7
4 2 7 3 2 5 3 5 0 6 1 2 9 8 6 4 5 3 4 8 8 8 4 6 3 4 9 10 13 11 12 15 11 10 14 11 13 12 12 13 15 17 17 19 18 24 16 14 15
8 4 10 11 4 3 5 3 6 4 6 7 9 8 6 6 9 8 4 5 7 10 9 6 8 7 8 10 12 13 13 12 8 14 7 8 9 10 11 12 13 16 19 18 18 19 21 18 19
5 9 15 10 15 5 3 7 11 9 12 8 6 7 9 13 14 14 12 5 7 7 12 14 12 15 15 14 14 14 13 12 9 8 4 4 6 9 11 13 14 17 17 18 13 11 17 17 17
8 18 11 11 6 6 3 9 9 9 18 9 7 8 12 16 17 16 17 12 8 8 14 16 16 14 19 20 16 16 15 11 8 4 5 8 9 14 15 17 18 20 19 18 16 14 16 17 16
11 9 14 17 12 7 2 8 9 9 18 13 13 7 9 18 19 17 17 17 11 11 15 19 16 25 21 25 23 19 15 9 4 3 6 9 12 13 15 19 20 21 22 22 19 17 17 18 20
4 7 11 7 2 4 6 9 11 13 13 15 15 9 8 12 13 14 16 14 11 16 13 17 18 18 14 23 18 23 17 13 4 1 4 7 10 11 13 13 16 19 21 22 23 22 22 21 22
6 6 8 6 8 7 10 14 12 19 14 13 14 11 10 14 13 10 8 12 15 13 12 16 14 11 12 15 15 15 7 6 3 4 5 8 12 14 15 17 17 16 17 19 21 25 25 25 24
6 6 12 11 7 5 12 15 15 16 17 11 8 9 11 13 14 7 6 8 8 12 12 11 9 8 11 8 17 14 11 7 4 5 8 10 12 12 15 16 12 10 12 13 16 21 27 28 26
9 7 12 13 10 14 15 22 19 26 21 14 14 13 11 13 16 13 7 8 6 8 8 7 5 6 7 9 13 11 8 8 8 7 10 12 12 12 14 16 13 13 10 9 12 15 18 23 25
11 9 8 6 11 15 18 16 19 14 13 21 15 11 13 15 15 15 8 4 6 7 7 8 3 4 4 5 7 7 9 10 8 10 12 14 14 13 14 15 12 12 9 8 7 9 12 17 19
9 9 8 12 15 14 10 11 10 15 7 22 11 17 15 15 14 15 8 4 4 5 5 6 3 3 1 2 5 5 5 6 7 10 12 14 15 15 15 14 12 9 9 8 6 4 6 9 11
10 9 9 4 2 6 8 10 11 10 8 13 12 12 10 12 15 14 5 5 3 4 4 2 1 2 6 6 4 2 3 7 8 11 14 13 12 12 13 11 9 7 6 5 6 5 3 7 7
17 12 13 3 2 5 6 8 4 5 14 11 2 6 10 11 9 7 7 5 5 4 4 1 4 6 5 6 4 3 2 4 8 13 15 14 11 11 11 13 9 7 7 4 4 3 5 6 1
12 18 11 17 21 11 6 5 11 13 13 14 18 14 14 8 5 5 4 5 5 5 5 3 3 9 8 8 5 4 2 5 11 14 17 15 11 11 14 13 11 9 10 8 8 2 3 5 4
11 13 10 8 1 5 11 12 4 17 21 10 12 13 14 12 9 4 5 2 6 8 8 6 6 10 9 7 5 4 2 6 9 13 18 17 11 10 13 14 13 11 12 9 7 7 5 5 3
13 16 16 16 13 2 3 1 6 12 8 7 15 14 10 13 15 8 8 6 10 12 12 8 8 10 9 7 4 5 2 5 9 13 17 18 13 11 10 12 14 14 12 13 10 9 6 4 4
8 17 16 16 11 15 15 3 5 9 4 10 14 19 12 17 19 14 11 9 11 9 6 3 8 9 7 5 5 5 2 5 9 13 14 16 15 12 10 12 13 13 12 11 9 9 10 10 6